Regional Weather Roundup
Issued by NWS

Home | Current Version | Previous Version | Graphics & Text | Print | Product List | Glossary On
Versions: 1 2 3 4 5 6 7 8 9 10 11 12 13 14 15 16 17 18 19 20 21 22 23 24 25 26 27 28 29 30 31 32 33 34 35 36 37 38 39 40 41 42 43 44 45 46 47 48 49 50
000
ASUS43 KLSX 201907
RWRMO

WEATHER SUMMARY FOR MISSOURI
NATIONAL WEATHER SERVICE SPRINGFIELD MO
200 PM CDT MON OCT 20 2014

NOTE: "FAIR" INDICATES FEW OR NO CLOUDS BELOW 12,000 FEET WITH NO
       SIGNIFICANT WEATHER AND/OR OBSTRUCTIONS TO VISIBILITY.
       CURRENT SKY AND/OR WEATHER CONDITIONS ARE NOT AVAILABLE FOR
       CHILLICOTHE AND FARMINGTON.

MOZ001>031-035>038-043-044-053-054-202000-
...NORTHERN AND WESTERN MISSOURI...

CITY           SKY/WX    TMP DP  RH WIND       PRES   REMARKS
KANSAS CTY INT SUNNY     72  48  42 NE5       30.05F
KANSAS C DTWN  SUNNY     74  48  39 N6        30.03F
LEE`S SUMMIT   SUNNY     72  47  40 VRB3      30.05F
ST JOSEPH      SUNNY     73  43  33 CALM      30.05F
CHILLICOTHE      N/A     72  44  36 N5        30.04F
KIRKSVILLE     SUNNY     70  47  43 N8        30.02F

$$
MOZ066>068-077>081-088>096-101>105-202000-
...SOUTHWEST MISSOURI...

CITY           SKY/WX    TMP DP  RH WIND       PRES   REMARKS
SPRINGFIELD    SUNNY     72  56  57 VRB5      30.03F
JOPLIN         SUNNY     72  57  59 NW6       30.04F

$$
MOZ032>034-039>042-045>050-055>058-069>072-202000-
...CENTRAL MISSOURI...

CITY           SKY/WX    TMP DP  RH WIND       PRES   REMARKS
COLUMBIA       SUNNY     72  49  44 NW6       30.01F
JEFFERSON CITY SUNNY     74  47  38 W7        29.99F
ROLLA          SUNNY     71  54  54 NW8       29.99F
SEDALIA        SUNNY     74  47  38 N6        30.03F
WHITEMAN AFB   SUNNY     72  47  41 VRB5      30.02F
OSAGE BEACH    SUNNY     72  55  56 NW6       30.01F

$$
MOZ051-052-059>065-202000-
...EAST CENTRAL MISSOURI...

CITY           SKY/WX    TMP DP  RH WIND       PRES   REMARKS
ST LOUIS INTL  SUNNY     73  50  44 W10G20    29.96F
SPIRIT OF STL  SUNNY     73  49  42 NW10      29.95F
ST CHARLES     SUNNY     72  44  36 NW14      29.95F

$$
MOZ072>076-082>087-097>100-106>115-202000-
...SOUTH CENTRAL AND SOUTHEAST MISSOURI...

CITY           SKY/WX    TMP DP  RH WIND       PRES   REMARKS
CAPE GIRARDEAU SUNNY     71  53  52 SW7       29.96F
FARMINGTON     SUNNY     73  50  43 W10G16    29.98F
WEST PLAINS      N/A     71  55  56 MISG      30.02F

$$


USA.gov is the U.S. government's official web portal to all federal, state and local government web resources and services.